Voltar ao catálogo

CZ-6A DEB

AtivoSSO
NORAD 54273·DEBRIS·🇨🇳 China

Lançado Nov 11, 2022 de Taiyuan Satellite Launch Center

Loading…

Próximas Passagens (próximas 24 horas)

TLE

AtualizadoSource: Space-Track

Época: Sep 13, 2026, 11:47 UTC

1 54273U 22151Q   26256.49112833  .00001748  00000-0  77640-3 0  9991
2 54273  98.7926 271.5540 0024558  15.7150 344.4786 14.24142056198105

Acompanhe CZ-6A DEB em tempo real com AllMySat

Download on the App Store